Weather History for KMLS - June, 2013

Change the Weather History Date:

Thursday, June 13, 2013

  Actual Average Record
Temperature  
Mean Temperature 71 °F 65 °F  
Max Temperature 80 °F 78 °F 103 °F (1979)
Min Temperature 61 °F 52 °F 34 °F (1969)
Degree Days  
Heating Degree Days 0 3  
Month to date heating degree days 45 57  
Since 1 June heating degree days 45 57  
Since 1 July heating degree days 7133 7606  
Cooling Degree Days 6 3  
Month to date cooling degree days 16 29  
Year to date cooling degree days 29 49  
Since 1 June cooling degree days 16 29  
Growing Degree Days 20 (Base 50)    
Moisture  
Dew Point 56 °F    
Average Humidity 63    
Maximum Humidity 78    
Minimum Humidity 48    
Precipitation  
Precipitation 0.40 in 0.08 in 1.75 in (1967)
Month to date precipitation 1.95 1.18  
Year to date precipitation 10.47 5.88  
Sea Level Pressure  
Sea Level Pressure 29.84 in    
Wind  
Wind Speed 13 mph (SE)    
Max Wind Speed 29 mph    
Max Gust Speed 37 mph    
Visibility 10 miles    
Events Rain    
T = Trace of Precipitation, MM = Missing Value Source: NWS Daily Summary

Daily Weather History Graph

Daily Weather History Graph

Search for Another Location

Airport or City:

Trip Planner

Search our weather history database for the weather conditions in past years. The results will help you decide how hot, cold, wet, or windy it might be!

Date:

Astronomy

Jun. 13, 2013 Rise Set
Actual Time 5:10 AM MDT 8:57 PM MDT
Civil Twilight 4:31 AM MDT 9:36 PM MDT
Nautical Twilight 3:38 AM MDT 10:28 PM MDT
Astronomical Twilight 2:24 AM MDT 11:43 PM MDT
Moon 10:03 AM MDT (6/13) 11:48 PM MDT (6/13)
Length of Visible Light 17h 04m
Length of Day
15h 46m
Waxing Crescent, 22% of the Moon is Illuminated
Jun 13
Waxing Crescent
Jun 16
First Quarter
Jun 23
Full
Jun 29
Last Quarter
Jul 8
New

Hourly Weather History & Observations

Time (MDT) Temp. Dew Point Humidity Pressure Visibility Wind Dir Wind Speed Gust Speed Precip Events Conditions
12:37 AM 64.4 °F 53.6 °F 68% 30.03 in 10.0 mi South 8.1 mph 24.2 mph 0.00 in   Scattered Clouds
12:53 AM 64.0 °F 54.0 °F 70% 29.95 in 10.0 mi SSE 17.3 mph - 0.00 in Rain Light Rain
1:53 AM 63.0 °F 54.0 °F 72% 29.95 in 10.0 mi SE 17.3 mph - 0.00 in   Clear
2:53 AM 63.0 °F 55.0 °F 75% 29.93 in 10.0 mi SSE 23.0 mph 28.8 mph N/A   Clear
3:53 AM 63.0 °F 55.0 °F 75% 29.93 in 10.0 mi SSE 19.6 mph 26.5 mph 0.00 in Rain Light Rain
4:53 AM 61.0 °F 54.0 °F 78% 29.89 in 10.0 mi SSE 17.3 mph 26.5 mph 0.00 in   Partly Cloudy
5:53 AM 61.0 °F 53.1 °F 75% 29.91 in 10.0 mi SSE 16.1 mph 23.0 mph N/A   Clear
6:53 AM 62.1 °F 54.0 °F 75% 29.91 in 10.0 mi SSE 16.1 mph 23.0 mph N/A   Clear
7:53 AM 64.0 °F 54.0 °F 70% 29.90 in 10.0 mi SE 16.1 mph - N/A   Clear
8:53 AM 66.9 °F 54.0 °F 63% 29.89 in 10.0 mi SSE 13.8 mph 28.8 mph N/A   Clear
9:53 AM 69.1 °F 53.1 °F 57% 29.86 in 10.0 mi SSE 21.9 mph 27.6 mph N/A   Clear
10:53 AM 73.0 °F 53.1 °F 49% 29.84 in 10.0 mi SSE 20.7 mph 31.1 mph N/A   Clear
11:53 AM 73.9 °F 54.0 °F 50% 29.82 in 10.0 mi SSE 17.3 mph 27.6 mph N/A   Clear
12:53 PM 75.9 °F 55.9 °F 50% 29.80 in 10.0 mi SSE 16.1 mph 24.2 mph N/A   Clear
1:53 PM 77.0 °F 57.9 °F 52% 29.83 in 10.0 mi South 15.0 mph 19.6 mph N/A   Clear
2:53 PM 78.1 °F 57.9 °F 50% 29.83 in 10.0 mi Variable 3.5 mph - N/A   Clear
3:53 PM 77.0 °F 57.9 °F 52% 29.80 in 10.0 mi NNE 9.2 mph - N/A   Clear
4:53 PM 78.1 °F 57.9 °F 50% 29.77 in 10.0 mi East 11.5 mph - N/A   Clear
5:53 PM 79.0 °F 59.0 °F 50% 29.77 in 10.0 mi East 11.5 mph - N/A   Clear
6:53 PM 78.1 °F 59.0 °F 52% 29.71 in 10.0 mi SE 9.2 mph - N/A   Clear
7:53 PM 73.9 °F 60.1 °F 62% 29.71 in 10.0 mi East 8.1 mph - N/A   Clear
8:53 PM 71.1 °F 60.1 °F 68% 29.74 in 10.0 mi SE 6.9 mph - N/A   Clear
9:17 PM 71.6 °F 60.8 °F 69% 29.87 in 10.0 mi SSW 15.0 mph 20.7 mph N/A   Scattered Clouds
9:53 PM 68.0 °F 61.0 °F 78% 29.79 in 10.0 mi SW 5.8 mph - 0.00 in Rain Light Rain
10:53 PM 66.9 °F 59.0 °F 76% 29.70 in 10.0 mi East 11.5 mph - 0.00 in   Clear
11:53 PM 66.9 °F 57.9 °F 73% 29.66 in 10.0 mi East 6.9 mph - N/A   Clear